When you browse on this site, cookies collect data to enhance your experience and personalize the content and advertising you see.
Visit our Privacy Policy to learn more. By continuing to use the site, you agree to this use of cookies and data.
  • In Österreich
  • Länderverzeichnis
  • Für 7 Tage
  • Wassertemperatur
  • Wetterkarte
  • News
  • Widgets
  • user-avatar
    Anmelden

    Stündliche Wetter Ayent

    Heute, 23 September, Montag

    Zeit Temperatur Niederschläge Wind Luftdruck Luftfeuchtigkeit
    00:00 +4°C° 0 mm 2 m/S 580 mmHg 96%
    01:00 +4°C° 2.3 mm 2 m/S 580 mmHg 96%
    02:00 +4°C° 2.3 mm 1 m/S 579 mmHg 96%
    03:00 +4°C° 2.3 mm 1 m/S 579 mmHg 97%
    04:00 +4°C° 0.3 mm 1 m/S 579 mmHg 97%
    05:00 +4°C° 0.3 mm 1 m/S 579 mmHg 97%
    06:00 +4°C° 0 mm 1 m/S 580 mmHg 97%
    07:00 +3°C° 0.4 mm 2 m/S 580 mmHg 96%
    08:00 +3°C° 0.4 mm 2 m/S 580 mmHg 95%
    09:00 +4°C° 0.4 mm 2 m/S 580 mmHg 95%
    10:00 +5°C° 0.2 mm 2 m/S 581 mmHg 89%
    11:00 +5°C° 0.2 mm 2 m/S 581 mmHg 83%
    12:00 +7°C° 0 mm 3 m/S 582 mmHg 75%
    13:00 +7°C° 0.1 mm 2 m/S 581 mmHg 74%
    14:00 +7°C° 0.1 mm 2 m/S 581 mmHg 73%
    15:00 +7°C° 0.1 mm 2 m/S 581 mmHg 72%
    16:00 +5°C° 0 mm 2 m/S 580 mmHg 79%
    17:00 +4°C° 0 mm 1 m/S 580 mmHg 85%
    18:00 +3°C° 0 mm 1 m/S 579 mmHg 92%
    19:00 +2°C° 0 mm 1 m/S 579 mmHg 91%
    20:00 +2°C° 0 mm 1 m/S 579 mmHg 91%
    21:00 +1°C° 0 mm 1 m/S 579 mmHg 90%
    22:00 +1°C° 0 mm 1 m/S 579 mmHg 89%
    23:00 +1°C° 0 mm 1 m/S 579 mmHg 87%

    Morgen, 24 September, Dienstag

    Zeit Temperatur Niederschläge Wind Luftdruck Luftfeuchtigkeit
    00:00 +1°C° 0 mm 1 m/S 579 mmHg 86%
    01:00 +1°C° 0 mm 1 m/S 579 mmHg 84%
    02:00 +1°C° 0 mm 1 m/S 578 mmHg 82%
    03:00 +1°C° 0 mm 1 m/S 578 mmHg 81%
    04:00 +1°C° 0 mm 1 m/S 578 mmHg 77%
    05:00 +2°C° 0 mm 1 m/S 578 mmHg 72%
    06:00 +2°C° 0 mm 1 m/S 578 mmHg 68%
    07:00 +5°C° 0 mm 1 m/S 579 mmHg 60%
    08:00 +7°C° 0 mm 1 m/S 580 mmHg 52%
    09:00 +10°C° 0 mm 1 m/S 581 mmHg 44%
    10:00 +9°C° 0.1 mm 1 m/S 581 mmHg 52%
    11:00 +8°C° 0.1 mm 1 m/S 581 mmHg 60%
    12:00 +6°C° 0.1 mm 2 m/S 580 mmHg 68%
    13:00 +7°C° 0 mm 1 m/S 580 mmHg 71%
    14:00 +7°C° 0 mm 1 m/S 580 mmHg 74%
    15:00 +7°C° 0 mm 1 m/S 580 mmHg 78%
    16:00 +6°C° 0.2 mm 1 m/S 579 mmHg 83%
    17:00 +5°C° 0.2 mm 1 m/S 579 mmHg 88%
    18:00 +5°C° 0.2 mm 1 m/S 578 mmHg 94%
    19:00 +5°C° 0.2 mm 1 m/S 579 mmHg 95%
    20:00 +5°C° 0.2 mm 1 m/S 579 mmHg 95%
    21:00 +5°C° 0.2 mm 1 m/S 579 mmHg 96%
    22:00 +5°C° 0.1 mm 1 m/S 579 mmHg 96%
    23:00 +5°C° 0.1 mm 1 m/S 578 mmHg 96%

    übermorgen, 25 September, Mittwoch

    Zeit Temperatur Niederschläge Wind Luftdruck Luftfeuchtigkeit
    00:00 +5°C° 0.1 mm 1 m/S 578 mmHg 96%
    01:00 +4°C° 0.1 mm 1 m/S 578 mmHg 95%
    02:00 +4°C° 0.1 mm 1 m/S 577 mmHg 95%
    03:00 +3°C° 0.1 mm 1 m/S 577 mmHg 94%
    04:00 +3°C° 0.3 mm 1 m/S 577 mmHg 95%
    05:00 +3°C° 0.3 mm 1 m/S 577 mmHg 95%
    06:00 +3°C° 0.3 mm 1 m/S 577 mmHg 95%
    07:00 +3°C° 0.3 mm 1 m/S 577 mmHg 95%
    08:00 +4°C° 0.3 mm 1 m/S 577 mmHg 94%
    09:00 +3°C° 0.3 mm 2 m/S 578 mmHg 93%
    10:00 +4°C° 0.2 mm 2 m/S 578 mmHg 89%
    11:00 +5°C° 0.2 mm 2 m/S 578 mmHg 85%
    12:00 +6°C° 0.2 mm 2 m/S 579 mmHg 81%
    13:00 +5°C° 0.4 mm 2 m/S 578 mmHg 81%
    14:00 +5°C° 0.4 mm 2 m/S 578 mmHg 81%
    15:00 +5°C° 0.4 mm 2 m/S 578 mmHg 81%
    16:00 +4°C° 0.2 mm 2 m/S 578 mmHg 86%
    17:00 +3°C° 0.2 mm 2 m/S 577 mmHg 91%
    18:00 +3°C° 0.2 mm 1 m/S 577 mmHg 95%
    19:00 +3°C° 0.1 mm 1 m/S 577 mmHg 95%
    20:00 +2°C° 0.1 mm 1 m/S 578 mmHg 95%
    21:00 +2°C° 0.1 mm 1 m/S 578 mmHg 95%
    22:00 +2°C° 0 mm 1 m/S 578 mmHg 94%
    23:00 +2°C° 0 mm 1 m/S 578 mmHg 94%

    26 September, Donnerstag

    Zeit Temperatur Niederschläge Wind Luftdruck Luftfeuchtigkeit
    00:00 +2°C° 0 mm 1 m/S 578 mmHg 94%
    01:00 +2°C° 0.2 mm 1 m/S 578 mmHg 94%
    02:00 +2°C° 0.2 mm 1 m/S 578 mmHg 94%
    03:00 +2°C° 0.2 mm 1 m/S 578 mmHg 94%
    04:00 +3°C° 0.1 mm 1 m/S 579 mmHg 94%
    05:00 +3°C° 0.1 mm 1 m/S 579 mmHg 94%
    06:00 +3°C° 0.1 mm 1 m/S 579 mmHg 95%
    07:00 +4°C° 0 mm 1 m/S 580 mmHg 93%
    08:00 +4°C° 0 mm 1 m/S 581 mmHg 91%
    09:00 +5°C° 0 mm 1 m/S 581 mmHg 89%
    10:00 +7°C° 0 mm 1 m/S 582 mmHg 82%
    11:00 +8°C° 0 mm 1 m/S 583 mmHg 75%
    12:00 +10°C° 0 mm 1 m/S 584 mmHg 68%
    13:00 +10°C° 0 mm 1 m/S 583 mmHg 68%
    14:00 +10°C° 0 mm 1 m/S 583 mmHg 68%
    15:00 +9°C° 0 mm 2 m/S 583 mmHg 68%
    16:00 +8°C° 0 mm 1 m/S 583 mmHg 76%
    17:00 +6°C° 0 mm 1 m/S 582 mmHg 84%
    18:00 +5°C° 0 mm 1 m/S 581 mmHg 92%
    19:00 +4°C° 0 mm 1 m/S 581 mmHg 92%
    20:00 +4°C° 0 mm 1 m/S 581 mmHg 92%
    21:00 +3°C° 0 mm 1 m/S 581 mmHg 92%
    22:00 +3°C° 0 mm 1 m/S 581 mmHg 92%
    23:00 +3°C° 0 mm 1 m/S 581 mmHg 92%

    27 September, Freitag

    Zeit Temperatur Niederschläge Wind Luftdruck Luftfeuchtigkeit
    00:00 +3°C° 0 mm 1 m/S 581 mmHg 92%
    01:00 +3°C° 0 mm 1 m/S 581 mmHg 91%
    02:00 +3°C° 0 mm 1 m/S 581 mmHg 90%
    03:00 +3°C° 0 mm 1 m/S 581 mmHg 89%
    04:00 +3°C° 0 mm 1 m/S 581 mmHg 88%
    05:00 +3°C° 0 mm 1 m/S 581 mmHg 87%
    06:00 +3°C° 0 mm 1 m/S 581 mmHg 87%
    07:00 +5°C° 0 mm 1 m/S 582 mmHg 80%
    08:00 +8°C° 0 mm 1 m/S 583 mmHg 73%
    09:00 +10°C° 0 mm 1 m/S 584 mmHg 67%
    10:00 +11°C° 0 mm 1 m/S 584 mmHg 64%
    11:00 +12°C° 0 mm 1 m/S 585 mmHg 61%
    12:00 +13°C° 0 mm 2 m/S 585 mmHg 59%
    13:00 +12°C° 0.1 mm 2 m/S 585 mmHg 59%
    14:00 +12°C° 0.1 mm 2 m/S 585 mmHg 59%
    15:00 +12°C° 0.1 mm 2 m/S 584 mmHg 59%
    16:00 +9°C° 0 mm 1 m/S 583 mmHg 69%
    17:00 +7°C° 0 mm 1 m/S 582 mmHg 78%
    18:00 +5°C° 0 mm 1 m/S 581 mmHg 88%
    19:00 +5°C° 0 mm 1 m/S 581 mmHg 88%
    20:00 +4°C° 0 mm 1 m/S 581 mmHg 88%
    21:00 +4°C° 0 mm 1 m/S 581 mmHg 88%
    22:00 +3°C° 0 mm 1 m/S 581 mmHg 87%
    23:00 +3°C° 0 mm 1 m/S 581 mmHg 86%

    28 September, Samstag

    Zeit Temperatur Niederschläge Wind Luftdruck Luftfeuchtigkeit
    00:00 +3°C° 0 mm 1 m/S 581 mmHg 85%
    01:00 +3°C° 0 mm 1 m/S 581 mmHg 86%
    02:00 +3°C° 0 mm 1 m/S 581 mmHg 87%
    03:00 +2°C° 0 mm 1 m/S 581 mmHg 87%
    04:00 +2°C° 0 mm 1 m/S 581 mmHg 88%
    05:00 +3°C° 0 mm 1 m/S 581 mmHg 88%
    06:00 +3°C° 0 mm 1 m/S 581 mmHg 89%
    07:00 +5°C° 0 mm 1 m/S 582 mmHg 81%
    08:00 +7°C° 0 mm 1 m/S 583 mmHg 74%
    09:00 +9°C° 0 mm 1 m/S 585 mmHg 66%
    10:00 +10°C° 0 mm 1 m/S 585 mmHg 60%
    11:00 +11°C° 0 mm 1 m/S 585 mmHg 54%
    12:00 +13°C° 0 mm 1 m/S 586 mmHg 48%
    13:00 +12°C° 0 mm 1 m/S 585 mmHg 50%
    14:00 +12°C° 0 mm 1 m/S 585 mmHg 52%
    15:00 +12°C° 0 mm 1 m/S 585 mmHg 54%
    16:00 +10°C° 0 mm 1 m/S 583 mmHg 65%
    17:00 +7°C° 0 mm 1 m/S 582 mmHg 76%
    18:00 +5°C° 0 mm 1 m/S 581 mmHg 87%
    19:00 +5°C° 0 mm 1 m/S 581 mmHg 87%
    20:00 +5°C° 0 mm 1 m/S 581 mmHg 87%
    21:00 +4°C° 0 mm 1 m/S 581 mmHg 87%
    22:00 +3°C° 0 mm 2 m/S 581 mmHg 85%
    23:00 +3°C° 0 mm 2 m/S 580 mmHg 83%
    Mehr zeigen